Regional Weather Roundup
Issued by NWS

Home | Current Version | Previous Version | Graphics & Text | Print | Product List | Glossary On
Versions: 1 2 3 4 5 6 7 8 9 10 11 12 13 14 15 16 17 18 19 20 21 22 23 24 25 26 27 28 29 30 31 32 33 34 35 36 37 38 39 40 41 42 43 44 45 46 47 48 49 50
000
ASUS43 KDTX 251501
RWRMI
MICHIGAN HOURLY REGIONAL WEATHER ROUNDUP
NATIONAL WEATHER SERVICE DETROIT/PONTIAC MI
1100 AM EDT WED MAY 25 2016

NOTE: "FAIR" INDICATES FEW OR NO CLOUDS BELOW 12,000 FEET WITH NO
SIGNIFICANT WEATHER AND/OR OBSTRUCTION TO VISIBILITY.

MIZ047>049-052>055-059>063-066>070-074>076-081>083-251600-
SOUTHEAST LOWER MICHIGAN

CITY           SKY/WX    TMP DP  RH WIND       PRES   REMARKS
ADRIAN         SUNNY     77  56  48 W9        30.11S
ALMA           CLOUDY    75  62  63 W8        30.07R
ANN ARBOR      SUNNY     79  59  50 SW10      30.09S
BAD AXE        SUNNY     76  56  48 NW5       30.07R
CARO           SUNNY     78  61  54 SW8       30.06R
DETROIT CITY   SUNNY     80  57  45 SW12      30.09R
DETROIT        MOSUNNY   80  57  45 SW9G17    30.11R
FLINT          PTSUNNY   83  59  44 W10       30.08R
GROSSE ILE     SUNNY     73  61  64 S7        30.09S
HILLSDALE      SUNNY     77  51  40 S6        30.10F
HOWELL         SUNNY     79  58  49 SW12      30.09S

CITY           SKY/WX    TMP DP  RH WIND       PRES   REMARKS
JACKSON        SUNNY     78  58  49 SW7       30.09F
LAMBERTVILLE   SUNNY     81  56  42 SW8       30.11S
LANSING        SUNNY     78  62  57 SW14G22   30.08R
LAPEER         FAIR      79  56  45 W12G17    30.08R
MASON          SUNNY     78  60  52 SW8       30.08F
MONROE         SUNNY     80  59  49 W10       30.10R
MT. CLEMENS    PTSUNNY   82  59  44 SW16G23   30.07R
PONTIAC        MOSUNNY   80  57  45 SW14G23   30.08R
PORT HOPE        N/A     60  55  83 E3        30.04R
PORT HURON     CLOUDY    79  57  47 W9        30.07R
TRI CITIES     MOSUNNY   77  57  50 SW9       30.06R
MIDLAND        PTSUNNY   76  58  54 CALM      30.05R
TROY           SUNNY     82  55  39 SW10G16   30.10R
SAGINAW HB     MOSUNNY   77  55  47 W9        30.06R
$$
MIZ043>046-050>051-056>058-064>065-071>073-077>080-251600-
SOUTHWEST LOWER MICHIGAN

CITY           SKY/WX    TMP DP  RH WIND       PRES   REMARKS
BATTLE CREEK   SUNNY     77  60  55 SW6       30.07F
BENTON HARBOR  SUNNY     79  63  57 VRB6      30.03F
BIG RAPIDS     CLOUDY    74  63  69 S5        30.05R
COLDWATER      SUNNY     78  59  52 S3        30.08F
FREMONT        FAIR      76  63  64 SW8       30.04F
HOLLAND        SUNNY     80  64  58 VRB5      30.04F
GRAND RAPIDS   MOSUNNY   81  61  50 SW9       30.05F
IONIA          FAIR      79  59  51 SW13      30.05S
KALAMAZOO      SUNNY     79  60  52 S9        30.06F
LUDINGTON      MOSUNNY   72  55  55 SW5       30.04S
MARSHALL       SUNNY     79  60  51 SW7       30.07F
MOUNT PLEASANT CLOUDY    75  60  60 SW3       30.05R
MUSKEGON       PTSUNNY   75  58  55 SW10      30.05S
SOUTH HAVEN    SUNNY     80  64  58 S3        30.03F
$$
MIZ016>042-251600-
NORTHERN LOWER MICHIGAN

CITY           SKY/WX    TMP DP  RH WIND       PRES   REMARKS
ALPENA         SUNNY     71  57  61 S3        30.07R
BEAVER ISLAND  CLOUDY    57  56  99 E9        30.08R FOG
BELLAIRE       SUNNY     68  60  75 N3        30.05S
CADILLAC       SUNNY     78  59  52 SW6       30.05S
CHARLEVOIX     CLOUDY    59  59  99 N5        30.10R
FRANKFORT      MOSUNNY   71  59  64 CALM      30.04S
GAYLORD        SUNNY     70  59  68 CALM      30.07R
GRAYLING       SUNNY     74  57  55 CALM      30.07S
HARBOR SPRINGS CLOUDY    58  57  96 E6        30.08R FOG
HOUGHTON LAKE  SUNNY     75  56  51 VRB3      30.06R
MANISTEE       MOSUNNY   73  57  56 W3        30.04F
OSCODA         MOSUNNY   70  54  57 E7        30.07R
PELLSTON       CLOUDY    58  56  93 E6        30.09R FOG
ROGERS CITY    CLOUDY    58  54  89 N5        30.10R
TRAVERSE CITY  PTSUNNY   68  55  63 NW5       30.05S
$$
MIZ007>008-015-251600-
EASTERN UPPER MICHIGAN

CITY           SKY/WX    TMP DP  RH WIND       PRES   REMARKS
KINROSS          N/A     55  55 100 NE5       30.09R
MACKINAC ISLAN CLOUDY    56  56 100 SE5       30.09R FOG
NEWBERRY       CLOUDY    59  58  97 NE5       30.09R
MUNISING         N/A     48  45  89 NE3       30.11R
$$
MIZ004>006-011>014-085-251600-
CENTRAL UPPER MICHIGAN

CITY           SKY/WX    TMP DP  RH WIND       PRES   REMARKS
MANISTIQUE     CLOUDY    58  57  94 NE6       30.08R
ESCANABA       CLOUDY    63  55  77 E8        30.07S
MENOMINEE      CLOUDY    58  54  86 E10       30.07F
SAWYER-GWINN   CLOUDY    50  50 100 NE3       30.11R FOG
$$
MIZ001>003-009>011-084-251600-
WESTERN UPPER MICHIGAN

CITY           SKY/WX    TMP DP  RH WIND       PRES   REMARKS
IRON MOUNTAIN  CLOUDY    56  52  86 NE6       30.06F
HOUGHTON       CLOUDY    48  44  86 SE14      30.10S
COPPER HARBOR    N/A     55  47  74 SE8       30.11R
IRONWOOD       CLOUDY    63  57  82 E6        30.01S
$$

ABBREVIATIONS USED IN REMARKS
   TC - TEMPERATURE IN CELSIUS
  WCI - WIND CHILL INDEX
   HX - HEAT INDEX
  VSB - VISIBILITY




USA.gov is the U.S. government's official web portal to all federal, state and local government web resources and services.